This is the latest recevied weather packets stored in our database for station/object AD7ZD. If no packets are shown the sender has not sent any weather packets the latest 10 day(s).
| Time | Temp. | Humidity | Pressure | Rain* | Wind** | Luminosity | Snow |
|---|---|---|---|---|---|---|---|
| 1777980497 | 8.33° C | 91% | 1008 hPa | 0.51 mm | - | 0 W/m² | - |
| 1777980195 | 8.33° C | 90% | 1008 hPa | 1.27 mm | - | 0 W/m² | - |
| 1777979890 | 8.33° C | 90% | 1008.1 hPa | 2.29 mm | - | 0 W/m² | - |
| 1777979586 | 8.33° C | 89% | 1008 hPa | 3.05 mm | - | 0 W/m² | - |
| 1777979282 | 8.33° C | 88% | 1008 hPa | 2.29 mm | - | 0 W/m² | - |
| 1777978980 | 8.33° C | 87% | 1007.9 hPa | 1.27 mm | - | 0 W/m² | - |
| 1777978676 | 8.33° C | 86% | 1008 hPa | 0.51 mm | - | 0 W/m² | - |
| 1777978372 | 8.89° C | 86% | 1007.9 hPa | 0.51 mm | - | 0 W/m² | - |
| 1777978069 | 8.89° C | 84% | 1007.9 hPa | 0 mm | - | 0 W/m² | - |
| 1777977766 | 8.89° C | 83% | 1007.9 hPa | 0 mm | - | 0 W/m² | - |
| 1777977462 | 8.89° C | 84% | 1007.8 hPa | 0 mm | - | 0 W/m² | - |
| 1777977160 | 8.89° C | 83% | 1007.7 hPa | 0 mm | - | 0 W/m² | - |
| 1777976857 | 9.44° C | 81% | 1007.8 hPa | 0 mm | - | 0 W/m² | - |
| 1777976555 | 8.89° C | 82% | 1007.8 hPa | 0 mm | - | 0 W/m² | - |
| 1777976254 | 8.89° C | 83% | 1007.9 hPa | 0 mm | - | 0 W/m² | - |
| 1777975950 | 8.89° C | 83% | 1007.8 hPa | 0 mm | - | 0 W/m² | - |
| 1777975646 | 8.89° C | 83% | 1007.8 hPa | 0 mm | - | 0 W/m² | - |
| 1777975343 | 8.89° C | 83% | 1007.8 hPa | 0 mm | - | 0 W/m² | - |
| 1777975038 | 8.89° C | 83% | 1007.9 hPa | 0 mm | - | 0 W/m² | - |
| 1777974737 | 9.44° C | 81% | 1007.9 hPa | 0 mm | - | 0 W/m² | - |
| 1777974432 | 8.89° C | 79% | 1007.9 hPa | 0 mm | - | 0 W/m² | - |
| 1777974129 | 8.89° C | 81% | 1007.7 hPa | 0 mm | - | 0 W/m² | - |
| 1777973825 | 8.89° C | 82% | 1007.7 hPa | 0 mm | - | 0 W/m² | - |
| 1777973523 | 8.89° C | 81% | 1008 hPa | 0 mm | - | 0 W/m² | - |
| 1777973219 | 9.44° C | 80% | 1008 hPa | 0 mm | - | 0 W/m² | - |
* Rain latest hour (hover to see other rain measurements)
** Current wind speed in m/s (hover to see current wind gust speed)